Regional Weather Roundup
Issued by NWS

Home | Current Version | Previous Version | Graphics & Text | Print | Product List | Glossary Off
Versions: 1 2 3 4 5 6 7 8 9 10 11 12 13 14 15 16 17 18 19 20 21 22 23 24 25 26 27 28 29 30 31 32 33 34 35 36 37 38 39 40 41 42 43 44 45 46 47 48 49 50

000
ASUS43 KLOT 251808
RWRIL

ILLINOIS REGIONAL WEATHER ROUNDUP
NATIONAL WEATHER SERVICE CHICAGO/ROMEOVILLE IL
1200 PM CST SUN FEB 25 2018

NOTE: "FAIR" INDICATES FEW OR NO CLOUDS BELOW 12,000 FEET WITH NO
SIGNIFICANT WEATHER AND/OR OBSTRUCTIONS TO VISIBILITY.

* THESE STATIONS ARE NOT UNDER NWS QUALITY CONTROL. THEY ALSO MAY NOT
  REPORT WEATHER SUCH AS PRECIPITATION OR FOG.

ILZ001-002-007-009-015-016-024-251900-
NORTHWEST ILLINOIS

CITY           SKY/WX    TMP DP  RH WIND       PRES   REMARKS
MOLINE         FAIR      43  26  51 SW17G23   29.95S
6HR MIN TEMP:  31; 6HR MAX TEMP:  43;

STERLING*      FAIR      40  25  55 W17G24    29.94R
SAVANNA*       FAIR      38  24  56 W13G18    29.92F WCI  30
$$

ILZ003-004-008-010-011-017-018-251900-
NORTH CENTRAL ILLINOIS

CITY           SKY/WX    TMP DP  RH WIND       PRES   REMARKS
ROCKFORD       FAIR      37  22  54 W14G23    29.91R WCI  28
6HR MIN TEMP:  30; 6HR MAX TEMP:  37;

FREEPORT*      FAIR      35  25  67 SW15G21   29.91S WCI  25
ROCHELLE*      FAIR      37  30  74 SW21      29.93R WCI  27
DE KALB*       FAIR      37  25  60 SW15G25   29.93R WCI  28
PERU*          FAIR      40  25  56 SW17      29.98R
$$

ILZ005-006-012>014-019>023-251900-
NORTHEAST ILLINOIS

CITY           SKY/WX    TMP DP  RH WIND       PRES   REMARKS
CHICAGO-OHARE  FAIR      39  24  55 W21G26    29.91R WCI  29
6HR MIN TEMP:  34; 6HR MAX TEMP:  40;

CHICAGO-MIDWAY FAIR      41  25  53 W17G24    29.94R
6HR MIN TEMP:  35; 6HR MAX TEMP:  41;

AURORA         FAIR      39  27  62 SW15      29.94R WCI  31
6HR MIN TEMP:  34; 6HR MAX TEMP:  40;

LANSING*       FAIR      41  28  60 SW17G29   29.96R
JOLIET*        FAIR      42  26  53 W16G22    29.97R
WAUKEGAN       FAIR      39  22  50 W12G28    29.85R WCI  32
6HR MIN TEMP:  32; 6HR MAX TEMP:  40;

DUPAGE AIRPORT FAIR      38  25  59 W16G28    29.92R WCI  29
6HR MIN TEMP:  33; 6HR MAX TEMP:  39;

KANKAKEE*      PTSUNNY   40  29  64 SW20G25   30.02S
WHEELING       FAIR      40  24  53 SW14G24   29.91R
6HR MIN TEMP:  34; 6HR MAX TEMP:  40;

MORRIS*        FAIR      41  27  59 SW14G23   29.97R
ROMEOVILLE*    FAIR      40  29  63 SW20G26   29.95S
NORTHERLY ISL    N/A     39  20  46 SW14        N/A  WCI  31
$$

LMZ740>746-251900-
SOUTHERN LAKE MICHIGAN

STATION/POSITION SKY/WX   TEMP    WIND        PRES    VSBY  WAVE
                          AIR SEA DIR/SP/G                  HT/PER
                          (F)     (DEG/KT/KT) (MB)    (MI)  (FT/S)
HARRISON CRIB              38     250/ 21/ 23   N/A
BURNHAM HARBOR             39     220/ 13/ 18   N/A
CALUMET HARBOR             39     220/ 11/ 20 1013.3R
BURNS HARBOR               39     240/ 22/ 26 1014.9R
MICHIGAN CITY              37     230/ 22/ 24   N/A
$$

ILZ025>027-034>036-040-047-049-050-058-095>099-251900-
WEST-CENTRAL ILLINOIS

CITY           SKY/WX    TMP DP  RH WIND       PRES   REMARKS
QUINCY         SUNNY     42  25  50 SW10G21   30.06R
GALESBURG*     FAIR      41  29  62 SW14G21   30.01R
MACOMB*        SUNNY    N/A N/A N/A SW15      30.05R
JACKSONVILLE*  SUNNY     42  27  54 SW12      30.08S
PITTSFIELD*    SUNNY     43  27  53 S10       30.09R
$$

ILZ028>032-037-038-041>044-048-051>054-059>061-251900-
CENTRAL ILLINOIS

CITY           SKY/WX    TMP DP  RH WIND       PRES   REMARKS
PONTIAC        FAIR      42  30  60 SW15G24   30.01S
BLOOMINGTON    FAIR      40  28  62 W13       30.03S
DECATUR        FAIR      43  27  53 W13G21    30.07S
PEORIA         FAIR      43  25  49 W8        30.02S
6HR MIN TEMP:  33; 6HR MAX TEMP:  44;

LACON*         FAIR      41  23  48 SW10G16   30.00R
LINCOLN*       FAIR      44  26  50 W9        30.06R
SPRINGFIELD    FAIR      44  28  53 W13       30.08S
6HR MIN TEMP:  34; 6HR MAX TEMP:  44;

TAYLORVILLE    FAIR      42  30  61 W14       30.09S
6HR MIN TEMP:  32; 6HR MAX TEMP:  43;

$$

ILZ033-039-045-046-055>057-062-063-251900-
EAST-CENTRAL ILLINOIS

CITY           SKY/WX    TMP DP  RH WIND       PRES   REMARKS
CHAMPAIGN      FAIR      42  30  62 SW18      30.05S
DANVILLE*      PTSUNNY   40  31  69 SW18      30.03S
RANTOUL*       FAIR      43  33  69 SW16G22   30.04S
MATTOON        FAIR      43  29  57 SW10G18   30.06F
PARIS*         FAIR      44  33  65 W17       30.08F
$$

ILZ079-100>102-251900-
SOUTHWEST ILLINOIS

CITY           SKY/WX    TMP DP  RH WIND       PRES   REMARKS
ALTON          SUNNY     46  30  53 SW8       30.12S
BELLEVILLE     SUNNY     46  28  49 SW10      30.11F
CAHOKIA*       SUNNY     46  28  49 VRB6      30.12S
SPARTA*        SUNNY     46  32  58 S7        30.13F
$$

ILZ064>066-069>071-074>076-080>082-084>086-088>090-092>094-251900-
SOUTH-CENTRAL ILLINOIS

CITY           SKY/WX    TMP DP  RH WIND       PRES   REMARKS
CARBONDALE     FAIR      46  30  53 W6        30.12F
6HR MIN TEMP:  37; 6HR MAX TEMP:  47;

CAIRO*         FAIR      46  33  62 W6        30.13F
EFFINGHAM*     FAIR      46  32  59 SW12      30.11F
MARION         PTSUNNY   46  30  53 W8        30.13F
MT. VERNON     FAIR      47  33  58 W8        30.11F
CENTRALIA*     SUNNY     46  32  59 W10       30.10F
SALEM*         FAIR      46  33  60 W8        30.11F
METROPOLIS*    FAIR      48  33  54 SW6       30.13F
$$

ILZ067-068-072-073-078-083-087-091-251900-
SOUTHEAST ILLINOIS

CITY           SKY/WX    TMP DP  RH WIND       PRES   REMARKS
LAWRENCEVILLE  FAIR      47  34  60 W10       30.10F
FLORA*         FAIR      47  33  56 SW8       30.11F
FAIRFIELD*     FAIR      47  35  64 MISG      30.11F
HARRISBURG*    FAIR      49  35  59 NW8       30.13F
ROBINSON*      FAIR      44  35  70 W13       30.11F
CARMI*         FAIR      47  37  65 SW7       30.11F
$$

ABBREVIATIONS USED IN REMARKS
   TC - TEMPERATURE IN CELSIUS
  WCI - WIND CHILL INDEX
   HX - HEAT INDEX
  VSB - VISIBILITY
$$





USA.gov is the U.S. government's official web portal to all federal, state and local government web resources and services.